STARLINK-32936, 63147

Orbit data source: Space-Track

STARLINK-32936, 63147 is a payload satellite owned by SpaceX/Seattle (US) in LEO that was launched on Mon, 03 Mar 2025 UTC via an FALCON 9 launch vehicle from the Air Force Eastern Test Range (AFETR). Payload-class satellites include a variety of spacecraft equipped with specific instruments for various scientific and technological missions. These include communications satellites like Starlink; space stations such as the ISS; scientific satellites like the Hubble; Earth observation satellites from companies like Planet Labs, Umbra, and HawkEye 360; GPS; miniature CubeSats for education and research; and military/defense satellites.

Loading next visibility...
Identifier
63147, 2025-043R
Orbit
LEO
Country
Flag of USUS
Related business
Manufacturer
SpaceX/Seattle
Mission
Operational Commercial Communications
Bus & Motor
STARLINK V2M, Unknown motor
Mass
730 kg wet, ~700 kg dry
Launch date (UTC)
2025-03-03 (1 year ago)
Launch vehicle
FALCON 9
Launch site
Air Force Eastern Test Range (AFETR)
Object type
Payload
Rocket body
Debris
Shape & HBR
Box + 2 Pan, 17.7 m
Radar Cross Section
33.884 m², Large (>1 m²)

Expand to show TLE details & history
Last TLE update: 10 hours ago

TLE from 10 hours ago
0 STARLINK-32936
1 63147U 25043R   26192.99214897  .00010701  00000-0  39770-3 0  9992
2 63147  42.9991  41.0908 0002555  41.8946 318.2101 15.27589681 76290
Epoch: 2026-07-11T23:48Z
TLE epoch observation values (Epoch: 2026-07-11T23:48:41.671Z)
Latitude
-0.00003°
Longitude
114.01973°
Altitude
481.489 km
Speed
7.627 km/s
True Right ascension
02h 44m 21s
True Declination
0° 00' 00"
Sunlit
Object was in daylight at epoch
Visualization orbit readout
Latitude
Unknown
Longitude
Unknown
Altitude
Unknown
Speed
Unknown
Apparent Right ascension
Unknown
Apparent Declination
Unknown
Sunlit
N/A
Visualization observer readout
Local Sidereal Time
21:50:10
Azimuth
Unknown
Elevation
Unknown
Doppler factor
Unknown
Orbital elements
Apogee altitude
486.719 km
Perigee altitude
483.212 km
Semi-major axis
6,863.102 km
Eccentricity
0.00026
Inclination
42.9991°
RAAN
41.0908°
Arg. of periapsis
41.8946°
True anomaly
318.19058°
Mean anomaly
318.2101°
Eccentric anomaly
318.20034°
Mean motion
3.81735 °/min
Orbital period
94.31 mins
BSTAR
0.0003977
Loading maneuver chart data...
Computing Atmospheric mass density...
Loading historical data...
Loading historical data...
Loading historical data...
Loading historical data...
Loading historical data...
Loading historical data...
Loading historical data...

Documentation

Showing up to 5 results
|